Date String (YYYY-MM-DD hh:mm:ss) UTC,Instrument flags,absolute air pressure of the measurement (hPa),sample flow rate (lpm),inlet stack bypass flow (lpm),air temperature of the measurement (°C),ambient temperature measured by the external sensor (°C),aerosol sample conditioner tube jacket temperature (°C),OPC LED temperature (°C),internal box temperature (°C),relative humidity of the measurement (%),span deviation,mass concentration of particles derived from Lorenz-Mie calculation of OPC scattering (μg/m³),mass concentration of particles derived from Lorenz-Mie calculation of OPC scattering (μg/m³),mass concentration of particles derived from Lorenz-Mie calculation of OPC scattering (μg/m³)
DateTimeUTC,F1_M11,P_M11,Q1_M11,Q2_M11,T1_M11,T2_M11,T3_M11,T4_M11,T5_M11,U1_M11,ZSPAN_M11,X0_M11,X2_M11,X1_M11
2024-01-10 00:00:00,SystemResetWarning,0814.1,5.01,000.00,020.2,019.5,000.0,028.5,021.4,10.0,0000.0,0019.17,0005.22,0003.61
2024-01-10 00:01:00,SystemResetWarning,0814.0,5.01,000.00,020.2,019.5,000.0,028.5,021.4,10.0,0000.0,0017.44,0005.17,0003.57
2024-01-10 00:02:00,SystemResetWarning,0814.1,5.00,000.00,020.2,019.5,000.0,028.5,021.5,10.1,0000.0,0017.01,0005.16,0003.56
2024-01-10 00:03:00,SystemResetWarning,0814.1,5.00,000.00,020.2,019.5,000.0,028.5,021.4,10.2,0000.0,0016.93,0005.13,0003.52
2024-01-10 00:04:00,SystemResetWarning,0814.0,5.00,000.00,020.2,019.6,000.0,028.5,021.5,10.3,0000.0,0016.66,0005.08,0003.48
2024-01-10 00:05:00,SystemResetWarning,0813.9,4.99,000.00,020.2,019.6,000.0,028.5,021.5,10.3,0000.0,0015.87,0005.00,0003.43
2024-01-10 00:06:00,SystemResetWarning,0814.2,4.99,000.00,020.2,019.6,000.0,028.5,021.5,10.3,0000.0,0015.60,0004.90,0003.37
2024-01-10 00:07:00,SystemResetWarning,0814.3,4.99,000.00,020.2,019.5,000.0,028.5,021.5,10.5,0000.0,0015.27,0004.77,0003.32
2024-01-10 00:08:00,SystemResetWarning,0814.2,5.00,000.00,020.2,019.5,000.0,028.5,021.5,10.7,0000.0,0014.93,0004.70,0003.27
2024-01-10 00:09:00,SystemResetWarning,0814.0,5.01,000.00,020.2,019.5,000.0,028.5,021.5,10.8,0000.0,0015.50,0004.62,0003.23
2024-01-10 00:10:00,SystemResetWarning,0814.0,5.01,000.00,020.2,019.5,000.0,028.5,021.5,10.7,0000.0,0015.38,0004.58,0003.20
2024-01-10 00:11:00,SystemResetWarning,0813.8,5.00,000.00,020.2,019.5,000.0,028.5,021.5,10.6,0000.0,0015.83,0004.54,0003.17
2024-01-10 00:12:00,SystemResetWarning,0813.9,5.00,000.00,020.2,019.5,000.0,028.5,021.5,10.5,0000.0,0015.47,0004.47,0003.09
2024-01-10 00:13:00,SystemResetWarning,0813.9,5.00,000.00,020.2,019.5,000.0,028.5,021.5,10.4,0000.0,0015.48,0004.31,0002.91
2024-01-10 00:14:00,SystemResetWarning,0813.7,4.99,000.00,020.2,019.4,000.0,028.5,021.5,10.2,0000.0,0014.52,0004.10,0002.72
2024-01-10 00:15:00,SystemResetWarning,0813.9,5.00,000.00,020.2,019.4,000.0,028.5,021.5,10.1,0000.0,0013.83,0003.89,0002.52
2024-01-10 00:16:00,SystemResetWarning,0813.9,4.99,000.00,020.2,019.4,000.0,028.5,021.5,10.2,0000.0,0013.13,0003.71,0002.35
2024-01-10 00:17:00,SystemResetWarning,0814.0,5.00,000.00,020.2,019.3,000.0,028.5,021.4,10.3,0000.0,0012.43,0003.54,0002.19
2024-01-10 00:18:00,SystemResetWarning,0813.9,5.00,000.00,020.2,019.3,000.0,028.5,021.5,10.4,0000.0,0011.97,0003.39,0002.04
2024-01-10 00:19:00,SystemResetWarning,0813.8,5.00,000.00,020.2,019.3,000.0,028.5,021.5,10.4,0000.0,0011.28,0003.25,0001.89
2024-01-10 00:20:00,SystemResetWarning,0813.9,5.01,000.00,020.2,019.3,000.0,028.5,021.4,10.4,0000.0,0010.83,0003.07,0001.73
2024-01-10 00:21:00,SystemResetWarning,0814.0,5.01,000.00,020.2,019.3,000.0,028.5,021.5,10.5,0000.0,0010.19,0002.77,0001.57
2024-01-10 00:22:00,SystemResetWarning,0813.9,5.00,000.00,020.2,019.3,000.0,028.5,021.5,10.5,0000.0,0009.10,0002.52,0001.42
2024-01-10 00:23:00,SystemResetWarning,0813.9,5.00,000.00,020.2,019.3,000.0,028.5,021.5,10.4,0000.0,0008.78,0002.32,0001.36
2024-01-10 00:24:00,SystemResetWarning,0813.9,5.00,000.00,020.2,019.3,000.0,028.5,021.5,10.4,0000.0,0008.00,0002.18,0001.31
2024-01-10 00:25:00,SystemResetWarning,0814.1,4.99,000.00,020.2,019.3,000.0,028.5,021.4,10.4,0000.0,0007.47,0002.15,0001.30
2024-01-10 00:26:00,SystemResetWarning,0814.3,5.00,000.00,020.2,019.3,000.0,028.5,021.4,10.4,0000.0,0006.67,0002.10,0001.26
2024-01-10 00:27:00,SystemResetWarning,0814.2,5.00,000.00,020.2,019.3,000.0,028.5,021.4,10.4,0000.0,0006.52,0002.05,0001.20
2024-01-10 00:28:00,SystemResetWarning,0814.3,5.00,000.00,020.2,019.3,000.0,028.5,021.4,10.4,0000.0,0006.18,0001.89,0001.12
2024-01-10 00:29:00,SystemResetWarning,0814.0,5.00,000.00,020.2,019.2,000.0,028.5,021.4,10.4,0000.0,0005.58,0001.71,0001.04
2024-01-10 00:30:00,SystemResetWarning,0813.9,5.00,000.00,020.2,019.2,000.0,028.5,021.4,10.4,0000.0,0005.33,0001.58,0000.95
2024-01-10 00:31:00,SystemResetWarning,0813.8,5.01,000.00,020.2,019.2,000.0,028.5,021.3,10.5,0000.0,0004.53,0001.43,0000.87
2024-01-10 00:32:00,SystemResetWarning,0813.7,5.01,000.00,020.2,019.1,000.0,028.5,021.3,10.5,0000.0,0004.00,0001.30,0000.78
2024-01-10 00:33:00,SystemResetWarning,0813.8,5.00,000.00,020.1,019.1,000.0,028.5,021.3,10.5,0000.0,0003.22,0001.19,0000.72
2024-01-10 00:34:00,SystemResetWarning,0813.9,5.00,000.00,020.1,019.1,000.0,028.5,021.3,10.5,0000.0,0003.23,0001.01,0000.61
2024-01-10 00:35:00,SystemResetWarning,0813.9,5.00,000.00,020.1,019.0,000.0,028.5,021.3,10.4,0000.0,0002.98,0000.86,0000.51
2024-01-10 00:36:00,SystemResetWarning,0813.9,5.00,000.00,020.1,019.0,000.0,028.5,021.3,10.5,0000.0,0003.25,0000.74,0000.42
2024-01-10 00:37:00,SystemResetWarning,0813.9,4.99,000.00,020.1,019.0,000.0,028.5,021.3,10.5,0000.0,0003.36,0000.67,0000.37
2024-01-10 00:38:00,SystemResetWarning,0813.9,5.00,000.00,020.1,019.0,000.0,028.5,021.3,10.5,0000.0,0003.29,0000.62,0000.35
2024-01-10 00:39:00,SystemResetWarning,0813.9,5.00,000.00,020.1,019.0,000.0,028.4,021.3,10.5,0000.0,0003.30,0000.62,0000.36
2024-01-10 00:40:00,SystemResetWarning,0813.9,5.00,000.00,020.1,019.0,000.0,028.4,021.3,10.5,0000.0,0003.47,0000.65,0000.36
2024-01-10 00:41:00,SystemResetWarning,0813.9,5.00,000.00,020.1,018.9,000.0,028.4,021.2,10.5,0000.0,0003.71,0000.65,0000.37
2024-01-10 00:42:00,SystemResetWarning,0814.1,5.00,000.00,020.1,018.9,000.0,028.4,021.3,10.5,0000.0,0003.57,0000.68,0000.39
2024-01-10 00:43:00,SystemResetWarning,0814.2,5.00,000.00,020.1,018.9,000.0,028.4,021.3,10.5,0000.0,0003.62,0000.71,0000.41
2024-01-10 00:44:00,SystemResetWarning,0814.2,5.00,000.00,020.0,018.9,000.0,028.4,021.3,10.4,0000.0,0003.66,0000.73,0000.42
2024-01-10 00:45:00,SystemResetWarning,0814.2,5.00,000.00,020.0,019.0,000.0,028.4,021.2,10.4,0000.0,0003.17,0000.74,0000.44
2024-01-10 00:46:00,SystemResetWarning,0814.2,5.00,000.00,020.0,019.0,000.0,028.4,021.3,10.3,0000.0,0002.96,0000.75,0000.45
2024-01-10 00:47:00,SystemResetWarning,0814.2,4.99,000.00,020.0,019.0,000.0,028.4,021.3,10.2,0000.0,0001.94,0000.72,0000.45
2024-01-10 00:48:00,SystemResetWarning,0814.3,5.00,000.00,020.0,019.0,000.0,028.4,021.3,10.2,0000.0,0001.82,0000.70,0000.44
2024-01-10 00:49:00,SystemResetWarning,0814.4,5.00,000.00,020.0,019.1,000.0,028.4,021.3,10.2,0000.0,0001.85,0000.71,0000.44
2024-01-10 00:50:00,SystemResetWarning,0814.3,5.00,000.00,020.0,019.1,000.0,028.4,021.3,10.3,0000.0,0001.84,0000.70,0000.43
2024-01-10 00:51:00,SystemResetWarning,0814.1,5.00,000.00,020.0,019.1,000.0,028.4,021.3,10.4,0000.0,0001.75,0000.68,0000.42
2024-01-10 00:52:00,SystemResetWarning,0814.0,5.00,000.00,020.0,019.1,000.0,028.4,021.3,10.3,0000.0,0001.73,0000.69,0000.43
2024-01-10 00:53:00,SystemResetWarning,0814.0,5.00,000.00,020.0,019.1,000.0,028.4,021.3,10.3,0000.0,0002.52,0000.66,0000.42
2024-01-10 00:54:00,SystemResetWarning,0813.9,5.00,000.00,020.0,019.1,000.0,028.4,021.3,10.3,0000.0,0002.54,0000.65,0000.41
2024-01-10 00:55:00,SystemResetWarning,0814.1,5.00,000.00,020.0,019.1,000.0,028.4,021.3,10.3,0000.0,0003.41,0000.67,0000.40
2024-01-10 00:56:00,SystemResetWarning,0814.2,5.00,000.00,020.0,019.1,000.0,028.4,021.3,10.2,0000.0,0003.46,0000.69,0000.40
2024-01-10 00:57:00,SystemResetWarning,0814.3,5.00,000.00,020.0,019.2,000.0,028.4,021.3,10.2,0000.0,0003.50,0000.70,0000.40
2024-01-10 00:58:00,SystemResetWarning,0814.2,5.00,000.00,020.0,019.2,000.0,028.4,021.3,10.1,0000.0,0003.57,0000.72,0000.40
2024-01-10 00:59:00,SystemResetWarning,0814.0,5.00,000.00,020.0,019.2,000.0,028.4,021.3,10.1,0000.0,0003.57,0000.72,0000.40
